Flag for China Weather past 2 weeks in Tianjin, Tianjin Municipality, China

Now
81 °F

Haze.


Feels Like: 81 °F
Forecast: 69 / 88 °F
Wind: 6 mph from Southwest

Location: Tianjin / Zhangguizhu

Current Time: May 27, 2015 at 10:27:50 AM

Latest Report: May 27, 2015 at 10:00 AM


Visibility: 2 mi

Pressure: 29.74 "Hg

Humidity: 51%

Dew point: 61 °F

Location of TianjinLocation

Historic Weather in Tianjin — Graph

°F

Tianjin temperature yesterday

Maximum temperature yesterday: 93 °F (at 3:00 PM)
Minimum temperature yesterday: 72 °F (at 3:30 AM)
Average temperature yesterday: 83 °F

Past Weeks' High & Low Weather Summary

 TemperatureHumidityPressure
High93 °F (May 25, 1:30 PM)94% (May 18, 1:30 AM)30.04 "Hg (May 18, 1:30 AM)
Low59 °F (May 13, 5:00 AM)10% (May 19, 12:00 PM)29.30 "Hg (May 13, 2:00 PM)
Average75 °F37%29.72 "Hg
* Reported May 12 9:00 AM — May 27 9:00 AM, Tianjin, Weather by CustomWeather, © 2015

Note: Actual official high and low records may vary slightly from our data, if they occured in-between our weather recording intervals... More about our weather records

Advertising

Tianjin weather history for previous 24 hours

 ConditionsComfort  
Time TempWeatherWind HumidityBarometerVisibility
9:00 AM
Wed, May 27
77 °FHaze.3 mph54%29.74 "Hg2 mi
8:30 AM77 °FHaze.3 mph54%29.74 "Hg2 mi
8:00 AM75 °FHaze.6 mph57%29.74 "Hg2 mi
7:30 AM73 °FHaze.3 mph61%29.71 "Hg1 mi
7:00 AM73 °FHaze.3 mph61%29.71 "Hg1 mi
6:30 AM72 °FHaze.3 mph65%29.71 "Hg1 mi
6:00 AM72 °FHaze.3 mph65%29.71 "Hg1 mi
5:30 AM70 °FHaze.3 mph64%29.71 "Hg1 mi
4:30 AM72 °FHaze.3 mph65%29.68 "Hg2 mi
4:00 AM72 °FHaze.6 mph61%29.68 "Hg2 mi
3:30 AM73 °FHaze.8 mph57%29.68 "Hg2 mi
3:00 AM73 °FHaze.8 mph57%29.71 "Hg3 mi
2:30 AM73 °FHaze.6 mph57%29.71 "Hg3 mi
2:00 AM75 °FHaze.6 mph50%29.71 "Hg3 mi
1:30 AM75 °FHaze.8 mph47%29.71 "Hg3 mi
1:00 AM77 °FHaze.10 mph42%29.71 "Hg3 mi
12:30 AM77 °FHaze.6 mph47%29.71 "Hg3 mi
12:00 AM77 °FClear.6 mph47%29.71 "Hg4 mi
11:30 PM
Tue, May 26
79 °FClear.6 mph45%29.71 "Hg4 mi
11:00 PM79 °FClear.6 mph45%29.71 "Hg4 mi
10:30 PM81 °FClear.6 mph42%29.71 "Hg4 mi
10:00 PM81 °FClear.6 mph42%29.71 "Hg4 mi
9:30 PM81 °FClear.6 mph42%29.71 "Hg4 mi
9:00 PM82 °FClear.8 mph40%29.71 "Hg4 mi
8:30 PM82 °FClear.8 mph40%29.68 "Hg4 mi
8:00 PM84 °FClear.8 mph33%29.68 "Hg4 mi
7:30 PM84 °FClear.10 mph33%29.68 "Hg4 mi
7:00 PM86 °FClear.10 mph35%29.65 "Hg4 mi
6:30 PM88 °FClear.10 mph25%29.65 "Hg5 mi
6:00 PM88 °FPassing clouds.13 mph25%29.65 "HgN/A
5:30 PM90 °FSunny.13 mph24%29.65 "Hg10 mi
5:00 PM90 °FSunny.10 mph24%29.65 "Hg10 mi
4:30 PM91 °FPassing clouds.10 mph23%29.65 "HgN/A
4:00 PM91 °FSunny.13 mph23%29.65 "Hg10 mi
3:30 PM91 °FPassing clouds.10 mph21%29.68 "HgN/A
3:00 PM93 °FPassing clouds.13 mph20%29.68 "HgN/A
2:30 PM91 °FPassing clouds.13 mph21%29.68 "HgN/A
2:00 PM91 °FClear.13 mph21%29.68 "Hg5 mi
1:30 PM91 °FClear.13 mph20%29.71 "Hg5 mi
1:00 PM91 °FClear.13 mph21%29.71 "Hg5 mi
12:30 PM91 °FClear.10 mph21%29.71 "Hg5 mi
12:00 PM90 °FClear.10 mph22%29.71 "Hg5 mi
11:30 AM90 °FClear.10 mph26%29.74 "Hg5 mi
11:00 AM90 °FClear.13 mph26%29.74 "Hg4 mi
10:30 AM86 °FClear.10 mph29%29.74 "Hg5 mi
10:00 AM84 °FClear.13 mph31%29.77 "Hg5 mi
Weather by CustomWeather, © 2015

See weather overviewHow to use our weather pages